Weather History for KCPR - January, 2014

Change the Weather History Date:

Thursday, January 30, 2014

  Actual Average Record
Temperature  
Mean Temperature 20 °F 25 °F  
Max Temperature 34 °F 35 °F 60 °F (1971)
Min Temperature 6 °F 14 °F -26 °F (1985)
Degree Days  
Heating Degree Days 45 40  
Month to date heating degree days 1217 1205  
Since 1 July heating degree days 4437 4334  
Cooling Degree Days 0 0  
Month to date cooling degree days 0 0  
Year to date cooling degree days 0 0  
Moisture  
Dew Point 14 °F    
Average Humidity 90    
Maximum Humidity 100    
Minimum Humidity 80    
Precipitation  
Precipitation 0.02 in 0.01 in 0.17 in (1943)
Month to date precipitation 0.74 0.49  
Year to date precipitation 0.74 0.49  
Snow  
Snow 0.40 in 0.30 in - ()
Month to date snowfall 14.2 8.8  
Since 1 July snowfall 54.7 39.3  
Snow Depth T in    
Sea Level Pressure  
Sea Level Pressure 29.75 in    
Wind  
Wind Speed 11 mph (NNE)    
Max Wind Speed 18 mph    
Max Gust Speed 22 mph    
Visibility 8 miles    
Events Snow    
T = Trace of Precipitation, MM = Missing Value Source: NWS Daily Summary

Daily Weather History Graph

Daily Weather History Graph

Search for Another Location

Airport or City:

Trip Planner

Search our weather history database for the weather conditions in past years. The results will help you decide how hot, cold, wet, or windy it might be!

Date:

Astronomy

Jan. 30, 2014 Rise Set
Actual Time 7:22 AM MST 5:16 PM MST
Civil Twilight 6:52 AM MST 5:46 PM MST
Nautical Twilight 6:18 AM MST 6:20 PM MST
Astronomical Twilight 5:45 AM MST 6:53 PM MST
Moon 6:49 AM MST (1/30) 5:33 PM MST (1/30)
Length of Visible Light 10h 54m
Length of Day
9h 53m
Waning Crescent, 0% of the Moon is Illuminated
Jan 30
Waning Crescent
Jan 30
New
Feb 6
First Quarter
Feb 14
Full
Feb 22
Last Quarter

Hourly Weather History & Observations

Time (MST) Temp. Windchill Dew Point Humidity Pressure Visibility Wind Dir Wind Speed Gust Speed Precip Events Conditions
12:53 AM 33.1 °F 24.4 °F - N/A% 29.56 in 10.0 mi WNW 11.5 mph - N/A   Overcast
1:53 AM 30.9 °F 26.2 °F - N/A% 29.58 in 10.0 mi WSW 4.6 mph - N/A   Scattered Clouds
2:53 AM 30.9 °F 22.2 °F - N/A% 29.57 in 10.0 mi SW 10.4 mph - N/A   Clear
3:53 AM 30.0 °F 21.1 °F - N/A% 29.56 in 10.0 mi SSW 10.4 mph - N/A   Clear
4:53 AM 30.0 °F 24.1 °F - N/A% 29.57 in 10.0 mi Variable 5.8 mph - N/A   Clear
5:53 AM 28.0 °F 19.3 °F 28.0 °F 100% 29.61 in 10.0 mi North 9.2 mph - N/A   Clear
6:15 AM 27.0 °F 18.7 °F 27.0 °F 100% 29.59 in 10.0 mi NE 8.1 mph - N/A   Mostly Cloudy
6:53 AM 28.0 °F 20.0 °F 28.0 °F 100% 29.64 in 10.0 mi North 8.1 mph - N/A   Overcast
7:23 AM 28.0 °F 18.1 °F 28.0 °F 100% 29.62 in 10.0 mi North 11.5 mph 20.7 mph N/A   Overcast
7:53 AM 25.0 °F 14.2 °F 25.0 °F 100% 29.66 in 10.0 mi North 11.5 mph 20.7 mph N/A   Overcast
8:53 AM 25.0 °F 14.8 °F 25.0 °F 100% 29.68 in 10.0 mi NE 10.4 mph - N/A   Unknown
9:19 AM 24.1 °F 12.0 °F 24.1 °F 100% 29.65 in 9.0 mi NNE 13.8 mph - N/A   Overcast
9:29 AM 24.1 °F 13.1 °F 23.0 °F 96% 29.66 in 10.0 mi NNE 11.5 mph - N/A   Overcast
9:39 AM 24.1 °F 11.5 °F 23.0 °F 96% 29.66 in 10.0 mi NNE 15.0 mph - N/A   Overcast
9:53 AM 23.0 °F 10.1 °F 21.9 °F 96% 29.74 in 10.0 mi NNE 15.0 mph - N/A   Overcast
10:53 AM 21.9 °F 8.7 °F 19.0 °F 89% 29.78 in 10.0 mi North 15.0 mph - N/A   Overcast
11:38 AM 19.9 °F 7.9 °F 18.0 °F 92% 29.71 in 7.0 mi North 11.5 mph - N/A   Overcast
11:53 AM 19.9 °F 7.9 °F 18.0 °F 92% 29.78 in 4.0 mi North 11.5 mph - N/A   Overcast
12:53 PM 19.0 °F 5.0 °F 17.1 °F 92% 29.79 in 10.0 mi NNE 15.0 mph - N/A   Overcast
1:53 PM 18.0 °F 2.2 °F 14.0 °F 84% 29.80 in 10.0 mi NNE 18.4 mph - N/A   Overcast
2:43 PM 17.1 °F 1.5 °F 12.9 °F 84% 29.71 in 10.0 mi NNE 17.3 mph - N/A   Overcast
2:53 PM 16.0 °F 0.6 °F 12.0 °F 84% 29.83 in 10.0 mi NE 16.1 mph - N/A   Overcast
3:53 PM 16.0 °F 1.7 °F 10.9 °F 81% 29.86 in 10.0 mi North 13.8 mph - N/A   Overcast
4:53 PM 15.1 °F -0.6 °F 10.0 °F 80% 29.86 in 10.0 mi NNE 16.1 mph - N/A   Overcast
5:53 PM 14.0 °F -0.2 °F 10.0 °F 84% 29.90 in 10.0 mi NE 12.7 mph - N/A   Overcast
6:20 PM 14.0 °F -0.2 °F 10.0 °F 84% 29.78 in 10.0 mi NE 12.7 mph - N/A   Overcast
6:53 PM 14.0 °F -0.2 °F 10.9 °F 88% 29.92 in 6.0 mi ENE 12.7 mph - 0.00 in Snow Light Snow
7:20 PM 14.0 °F 1.2 °F 10.0 °F 84% 29.77 in 2.5 mi ENE 10.4 mph - 0.01 in Snow Light Snow
7:32 PM 14.0 °F 0.5 °F 10.9 °F 88% 29.76 in 1.5 mi ENE 11.5 mph - 0.01 in Snow Light Snow
7:53 PM 14.0 °F 1.2 °F 10.0 °F 84% 29.91 in 2.5 mi ENE 10.4 mph - 0.01 in Snow Light Snow
8:02 PM 14.0 °F 1.2 °F 10.0 °F 84% 29.77 in 4.0 mi NE 10.4 mph - 0.00 in Snow Light Snow
8:14 PM 14.0 °F 2.0 °F 10.0 °F 84% 29.78 in 6.0 mi NE 9.2 mph - 0.00 in Snow Light Snow
8:53 PM 12.9 °F -0.2 °F 10.0 °F 88% 29.92 in 10.0 mi NE 10.4 mph - 0.01 in   Overcast
9:53 PM 12.9 °F 2.6 °F 10.0 °F 88% 29.93 in 4.0 mi ENE 6.9 mph - 0.00 in Snow Light Snow
10:01 PM 12.0 °F 1.5 °F 9.0 °F 88% 29.77 in 5.0 mi NE 6.9 mph - 0.00 in Snow Light Snow
10:43 PM 8.1 °F -2.0 °F 5.0 °F 87% 29.77 in 5.0 mi North 5.8 mph - 0.00 in   Overcast
10:53 PM 8.1 °F -2.0 °F 5.0 °F 87% 29.95 in 8.0 mi North 5.8 mph - 0.00 in   Mostly Cloudy
11:01 PM 8.1 °F -2.0 °F 5.0 °F 87% 29.76 in 10.0 mi North 5.8 mph - N/A   Scattered Clouds
11:37 PM 9.0 °F -0.9 °F 5.0 °F 84% 29.77 in 10.0 mi North 5.8 mph - N/A   Mostly Cloudy
11:50 PM 10.4 °F 2.2 °F 6.8 °F 85% 29.77 in 10.0 mi NNW 4.6 mph - N/A   Overcast
11:53 PM 10.0 °F 0.4 °F 6.1 °F 84% 29.95 in 10.0 mi NNW 5.8 mph - N/A   Overcast